Regional Weather Roundup
Issued by NWS

Home | Current Version | Previous Version | Text Only | Print | Product List | Glossary Off
Versions: 1 2 3 4 5 6 7 8 9 10 11 12 13 14 15 16 17 18 19 20 21 22 23 24 25 26 27

000
ASUS45 KCYS 211210
RWRWY

WYOMING REGIONAL WEATHER ROUNDUP
NATIONAL WEATHER SERVICE CHEYENNE WY
500 AM MST TUE FEB 21 2017

NOTE:  "FAIR" INDICATES FEW OR NO CLOUDS BELOW 12,000 FEET
WITH NO SIGNIFICANT WEATHER AND/OR OBSTRUCTIONS TO VISIBILITY.

WYZ001-211300-
YELLOWSTONE NATIONAL PARK

CITY           SKY/WX    TMP DP  RH WIND       PRES   REMARKS
LK YELLOWSTONE   N/A     30  29  96 VRB5      29.86F WCI  25
6HR MIN TEMP:  30; 6HR MAX TEMP:  31; 6HR PCP:  0.40;

W YELLOWSTONE  NOT AVBL

$$
WYZ002>013-054>058-071-098>099-211300-
NORTHERN WYOMING

CITY           SKY/WX    TMP DP  RH WIND       PRES   REMARKS
JACKSON        CLOUDY    39  34  81 S21G30    29.88F WCI  29
CODY           FAIR      40  32  73 CALM      29.77F
GREYBULL       FAIR      42  32  67 CALM      29.78S
6HR MIN TEMP:  40; 6HR MAX TEMP:  46;

WORLAND        FAIR      40  33  76 S6        29.77S
6HR MIN TEMP:  38; 6HR MAX TEMP:  44;

SHERIDAN       FAIR      49  28  44 VRB6G20   29.70F
6HR MIN TEMP:  46; 6HR MAX TEMP:  55;

BUFFALO        FAIR      45  27  49 S7        29.75F
6HR MIN TEMP:  41; 6HR MAX TEMP:  53;

GILLETTE       FAIR      47  32  56 SW35G45   29.71F
6HR MIN TEMP:  46; 6HR MAX TEMP:  48;

HULETT         FAIR      46  32  57 SW15G22   29.78F
NEWCASTLE      FAIR      46  32  57 S8G22     29.87F

$$
WYZ014>020-022>026-101>103-211300-
CENTRAL WYOMING

CITY           SKY/WX    TMP DP  RH WIND       PRES   REMARKS
BIG PINEY      CLOUDY    36  32  85 SW21      30.00R WCI  25
6HR MIN TEMP:  30; 6HR MAX TEMP:  37; 6HR PCP:  0.01;

PINEDALE       RAIN      34  32  93 SW9       30.01R WCI  26
DUBOIS         DRIZZLE   34  32  93 NW14      29.86S WCI  24
LANDER         LGT RAIN  47  32  56 SW21G32   29.88R
6HR MIN TEMP:  43; 6HR MAX TEMP:  48; 6HR PCP: TRACE;

RIVERTON       FAIR      42  33  70 SW10      29.88R
6HR MIN TEMP:  39; 6HR MAX TEMP:  43;

CASPER         FAIR      43  31  62 SW26G35   29.86F
6HR MIN TEMP:  42; 6HR MAX TEMP:  45; 6HR PCP: TRACE;

DOUGLAS        FAIR      52  29  41 W36G45    29.84F
6HR MIN TEMP:  46; 6HR MAX TEMP:  52;


$$
WYZ021-027>030-104>119-211300-
SOUTHERN WYOMING

CITY           SKY/WX    TMP DP  RH WIND       PRES   REMARKS
EVANSTON       FAIR      38  30  73 SW30G38   30.03S WCI  26
6HR MIN TEMP:  37; 6HR MAX TEMP:  39;

KEMMERER         N/A     37  32  81 SW18G28   30.04R WCI  27
FORT BRIDGER   FAIR      40  31  69 SW14      30.08S WCI  33
ROCK SPRINGS   FAIR      39  29  67 SW14      30.05R WCI  31
6HR MIN TEMP:  37; 6HR MAX TEMP:  40;

DIXON            N/A     42  32  67 SW21G36   30.15S
RAWLINS        MOCLDY    39  30  70 SW21G35   30.07R WCI  29
6HR MIN TEMP:  39; 6HR MAX TEMP:  40;

SARATOGA       FAIR      39  30  70 SW20G29   30.11S WCI  30
LARAMIE        FAIR      38  25  59 SW23      30.04F WCI  27
6HR MIN TEMP:  37; 6HR MAX TEMP:  44;

CHEYENNE       FAIR      47  26  44 W26G35    30.01R
6HR MIN TEMP:  34; 6HR MAX TEMP:  51;

TORRINGTON     FAIR      34  21  59 E9        29.92F WCI  27
6HR MIN TEMP:  32; 6HR MAX TEMP:  49;

PINE BLUFFS    FAIR      50  27  40 S6G25     30.00S

$$




USA.gov is the U.S. government's official web portal to all federal, state and local government web resources and services.